Location: Alsip
(41.6689°N, 87.7387°W)
Time: 14:19:43
(UTC+00:00)

Cosmos 2369 Rocket - Pass Details

Date: 14 July 2020
Orbit: 830 x 851 km, 71.0° (Epoch: 04 August)

Event Time Altitude Azimuth Distance (km) Brightness Sun altitude
Rises 06:08:17 0° 321° (NW) 3,383 6.0 -26.7°
Reaches altitude 10° 06:11:19 10° 305° (NW) 2,447 5.0 -26.6°
Enters shadow 06:14:48 20° 267° (W) 1,840 3.9 -26.6°
